COSMOS 970 DEB

基本信息
目录编号:
10562
目录名称:
COSMOS 970 DEB
国际标识:
1977-121D
轨道中心:
EARTH
物体状态:
在轨
发射日期:
1977-12-21 UTC
轨道信息
数据来源: 国际轨道数据
星历时间: 2026-09-12T06:43:57+0800
半长轴: 7499.289km
偏心率: 0.0085384
轨道倾角: 65.869°
近地点辐角: 40.265°
升交点赤经: 68.662°
平近点角: 123.365°
近地点: 1057.12km
远地点: 1185.184km
周期: 107.718分钟
每日圈数: 13.368193
详细信息
发射场:
TTMTR
轨道高度:
LEO
数据来源:
AOE Integration Group
参考系:
TEME
时间系统:
UTC
历元类型:
SGP4
2D轨道图
3D轨道图
轨道高度分析图
轨道倾角分析图
轨道综合分析图
查看轨道综合分析图